Regional Weather Roundup
Issued by NWS

Home | Current Version | Previous Version | Text Only | Print | Product List | Glossary Off
Versions: 1 2 3 4 5 6 7 8 9 10 11 12 13 14 15 16 17 18 19 20 21 22 23 24 25 26 27 28 29 30 31 32 33 34 35 36 37 38 39 40 41 42 43 44 45 46 47 48 49 50

000
ASUS45 KSLC 230310
RWRUT

UTAH REGIONAL WEATHER ROUNDUP
NATIONAL WEATHER SERVICE SALT LAKE CITY UT
900 PM MDT FRI MAY 22 2015

UTZ001>011-023>025-230400-

NORTHERN UTAH

CITY           SKY/WX    TMP DP  RH WIND       PRES   REMARKS
BRIGHAM CITY   CLOUDY    60  41  50 SE8       29.88S
HILL AFB       MOCLDY    55  41  60 SE9       29.90R
LOGAN          CLOUDY    54  45  71 W6        29.90R
OGDEN          MOCLDY    57  42  57 S9        29.88R
PROVO AIRPORT  NOT AVBL
SALT LAKE CITY MOCLDY    59  41  51 S13       29.89R
VERNAL         CLOUDY    51  40  65 NW10      29.90F
WENDOVER       CLOUDY    55  45  67 SW6       29.89R
HEBER CITY     CLOUDY    50  41  71 CALM      29.94R
WEST JORDAN    CLOUDY    54  41  62 SW18G24   29.91R

$$

UTZ012>022-026-027-230400-

SOUTHERN/CENTRAL UTAH

CITY           SKY/WX    TMP DP  RH WIND       PRES   REMARKS
BLANDING       PTCLDY    56  27  32 W16G25    29.99R
BRYCE CANYON   MOCLDY    42  35  76 CALM      30.00R
CEDAR CITY     CLOUDY    45  39  79 S5        29.97S
DELTA          CLOUDY    51  41  69 S7        29.93R
HANKSVILLE     CLOUDY    61  32  33 SW20G29   29.87R
MILFORD        CLOUDY    46  40  79 S12       29.96S
MOAB/CYNLANDS  CLOUDY    63  30  28 SW23G33   29.85R THUNDER
PRICE          CLOUDY    53  34  48 NW8       29.90R
ST GEORGE      CLOUDY    59  37  44 NE5       29.95R
KANAB          CLOUDY    45  39  81 S3        30.03S

$$

REGIONAL REPORTS     COLORADO/ARIZONA

CITY           SKY/WX    TMP DP  RH WIND       PRES   REMARKS
CRAIG, CO      PTCLDY    48  41  76 N5        29.98R
GRAND JUNCTION CLOUDY    53  43  68 N8        29.90F
RIFLE          LGT RAIN  54  39  57 SW12G26   29.98R
MONTROSE       MOCLDY    50  39  66 SE13      29.98S
CORTEZ         MOCLDY    51  44  77 W6        29.93R
PAGE, AZ       CLOUDY    58  35  42 VRB3      29.94R
GRAND CANYON   MOCLDY    37  36  96 CALM      30.03R
KINGMAN        MOCLDY    54  39  57 S7        29.94R
FLAGSTAFF      MOCLDY    40  33  76 W6        30.02R

$$

REGIONAL REPORTS    NEVADA/IDAHO/WYOMING

CITY           SKY/WX    TMP DP  RH WIND       PRES   REMARKS
LAS VEGAS, NV  PTCLDY    67  39  35 SW9       29.83R
ELY            CLOUDY    47  40  76 W7        29.97R
ELKO           CLOUDY    49  43  80 S8        29.94S
POCATELLO, ID  PTCLDY    58  51  78 SW7       29.89R
BURLEY         CLOUDY    56  48  74 CALM      29.86R
EVANSTON, WY   LGT RAIN  41  39  93 S6        30.01R
ROCK SPRINGS   CLOUDY    43  40  89 W9        29.98S
KEMMERER       DRIZZLE   41  39  93 SW6       30.00R

$$


USA.gov is the U.S. government's official web portal to all federal, state and local government web resources and services.